Temp
21 21 21 20 20 19 19 18 18 18 17 17 17 17 17 17 17 17 17 18 17 17 16 16 16 16 16 17 16 16 16 16 17 16 16 16 17 17 16 16 16 17 17
19 20 21 21 20 20 19 19 18 17 17 17 17 17 17 17 17 17 17 17 17 17 16 16 16 16 16 16 16 16 16 16 16 16 16 16 16 16 16 16 16 17 17
15 19 20 21 20 19 19 19 18 18 17 17 17 17 17 16 16 16 16 17 17 17 16 16 16 15 16 16 16 16 16 16 16 16 16 16 16 16 16 16 16 16 17
14 15 17 19 19 18 18 17 18 17 17 17 17 17 17 16 16 16 16 16 17 16 16 16 15 16 16 16 16 16 16 16 16 16 16 16 16 16 16 16 16 16 16
14 14 14 15 15 15 17 17 17 16 17 16 16 16 16 16 16 16 16 16 16 16 16 15 15 16 16 16 15 16 16 16 16 16 16 16 16 16 16 16 16 16 16
14 15 15 14 15 15 15 14 14 14 16 16 16 16 16 16 16 16 16 16 16 16 16 15 15 15 15 16 15 16 15 16 16 16 16 16 16 16 16 16 16 16 16
13 13 14 14 15 14 14 14 14 14 14 14 16 16 16 16 15 15 15 15 15 15 15 15 14 15 15 15 15 16 16 16 16 16 15 16 15 16 16 16 16 16 16
12 13 13 13 14 14 14 14 14 14 14 15 14 14 14 14 15 14 15 15 15 15 15 15 15 15 15 15 15 16 16 16 16 16 15 15 15 15 16 16 16 16 15
11 12 13 13 13 13 14 14 14 14 14 15 15 15 15 15 15 15 15 15 15 15 15 15 15 15 15 15 15 15 15 15 15 15 15 15 15 15 15 16 15 15 15
11 12 12 12 13 13 14 14 14 13 14 14 14 15 15 14 14 15 15 14 14 14 14 15 15 15 15 15 15 15 15 15 15 15 15 15 15 15 15 15 15 15 15
11 11 11 12 12 12 12 13 14 13 13 14 14 14 14 14 14 14 14 14 14 14 14 14 14 14 14 14 14 14 14 15 15 15 15 14 15 15 15 15 15 15 15
11 11 10 10 11 12 12 12 13 13 13 13 13 13 13 13 13 13 14 14 14 14 14 14 14 14 14 14 14 14 14 14 15 15 14 14 15 15 15 15 15 15 15
5 7 8 9 9 10 11 12 12 13 13 13 13 13 13 12 12 12 13 13 13 13 14 13 13 14 14 14 14 14 14 14 14 14 14 14 14 14 14 14 14 14 14
4 4 6 7 9 9 10 10 12 12 13 13 12 12 12 12 12 11 12 13 13 13 13 13 13 13 14 14 14 13 13 14 14 14 14 14 14 14 14 14 14 14 14
3 4 4 5 6 8 9 9 10 11 12 12 12 11 11 12 12 12 11 12 12 13 13 13 13 13 13 14 14 13 13 13 14 14 14 14 14 14 13 14 14 14 13
0 2 3 4 4 5 6 8 9 10 11 12 11 11 12 11 11 12 12 12 12 12 12 13 13 13 13 13 13 13 13 13 13 14 14 13 14 13 13 13 13 13 12
-3 -2 -0 2 3 4 5 6 7 9 10 11 11 11 11 11 11 11 11 11 11 11 12 12 12 12 12 11 12 12 11 12 13 13 13 13 14 13 14 14 12 12 12
-5 -4 -3 -2 0 2 3 4 5 6 8 9 10 10 11 11 11 11 10 10 11 11 11 11 11 11 11 11 11 11 11 12 13 13 13 13 13 13 13 13 12 12 12
-5 -4 -4 -3 -2 -0 1 3 4 5 6 8 9 10 10 10 10 10 10 9 10 9 9 10 10 10 11 11 11 11 11 12 12 12 13 12 13 12 12 12 12 12 12
-7 -6 -5 -4 -4 -3 -1 1 2 4 4 5 8 9 10 10 10 10 10 10 9 9 9 10 10 10 10 11 11 11 11 11 12 12 12 12 12 12 12 12 11 11 11
-7 -6 -6 -5 -5 -5 -3 -1 2 4 5 5 6 7 9 9 10 9 10 9 9 9 9 9 10 10 11 10 11 10 10 11 11 11 12 12 12 12 11 11 11 11 10
-8 -8 -7 -7 -7 -6 -6 -5 -5 -2 1 2 4 6 7 9 9 9 9 9 9 9 9 10 10 10 10 10 10 10 7 7 9 10 11 11 12 11 11 11 10 10 9
-9 -9 -9 -9 -8 -8 -7 -6 -5 -3 -0 1 1 3 5 7 7 9 9 9 9 9 9 10 10 9 10 9 10 10 7 7 7 7 8 10 10 11 10 9 9 9 7
-11 -10 -9 -9 -9 -8 -8 -7 -7 -7 -5 -2 -1 -0 1 4 7 8 9 8 8 9 9 10 10 10 10 10 10 10 10 12 9 6 7 8 8 8 8 8 7 7 7
-11 -11 -10 -10 -9 -9 -9 -9 -8 -7 -7 -5 -3 -2 -1 1 3 6 7 7 8 9 9 9 9 10 10 10 10 9 8 9 9 8 6 6 7 7 7 6 6 6 6
-11 -11 -11 -10 -10 -9 -9 -9 -9 -9 -8 -6 -5 -4 -2 -0 2 5 5 8 7 9 9 9 9 9 9 9 10 9 10 10 8 8 7 6 6 6 6 6 5 5 5
Height
1520 1521 1523 1524 1525 1527 1528 1529 1531 1532 1534 1535 1537 1539 1540 1541 1542 1543 1543 1544 1544 1544 1545 1546 1547 1547 1548 1549 1550 1551 1551 1553 1554 1556 1557 1557 1557 1558 1560 1561 1563 1562 1563
1523 1523 1523 1525 1526 1527 1529 1530 1531 1533 1534 1536 1537 1538 1540 1541 1541 1542 1543 1544 1544 1544 1545 1547 1547 1548 1548 1549 1551 1551 1552 1553 1554 1557 1558 1558 1558 1559 1561 1562 1563 1564 1565
1528 1527 1527 1527 1527 1528 1529 1531 1532 1533 1534 1536 1537 1538 1539 1540 1541 1542 1543 1543 1544 1544 1545 1546 1547 1548 1549 1549 1550 1552 1552 1554 1554 1556 1558 1558 1560 1561 1562 1563 1564 1565 1567
1531 1531 1529 1529 1529 1530 1531 1532 1533 1535 1536 1536 1537 1538 1539 1540 1540 1541 1543 1544 1544 1545 1545 1546 1548 1547 1549 1549 1550 1552 1553 1554 1555 1556 1558 1559 1561 1562 1562 1564 1565 1566 1568
1531 1533 1535 1534 1533 1532 1532 1533 1534 1535 1536 1537 1538 1538 1539 1539 1539 1541 1542 1543 1544 1544 1545 1546 1547 1547 1548 1549 1550 1552 1553 1554 1555 1555 1557 1559 1561 1562 1563 1565 1567 1567 1569
1527 1530 1530 1531 1535 1536 1536 1535 1534 1534 1535 1536 1537 1537 1538 1538 1539 1539 1541 1542 1543 1543 1544 1545 1546 1546 1548 1548 1550 1551 1552 1554 1555 1555 1556 1558 1560 1561 1564 1566 1568 1567 1569
1527 1527 1528 1529 1530 1532 1537 1537 1538 1537 1537 1537 1537 1537 1537 1538 1539 1538 1539 1540 1541 1542 1543 1544 1545 1545 1546 1547 1548 1549 1551 1552 1553 1554 1555 1557 1559 1562 1564 1565 1569 1568 1569
1528 1528 1527 1527 1529 1530 1530 1530 1535 1535 1536 1537 1537 1537 1537 1537 1537 1538 1538 1539 1540 1541 1542 1543 1543 1544 1545 1547 1547 1548 1550 1551 1551 1552 1554 1556 1558 1559 1562 1565 1568 1568 1570
1530 1528 1528 1527 1528 1528 1529 1529 1528 1534 1534 1534 1535 1536 1536 1536 1536 1537 1537 1538 1538 1539 1540 1541 1541 1542 1544 1545 1546 1548 1549 1549 1550 1551 1553 1554 1557 1559 1561 1564 1566 1567 1571
1530 1529 1527 1527 1527 1527 1527 1528 1528 1529 1531 1532 1532 1533 1534 1534 1535 1535 1535 1536 1536 1538 1538 1539 1540 1541 1542 1544 1545 1547 1548 1549 1549 1550 1552 1553 1555 1558 1560 1562 1565 1566 1570
1530 1528 1527 1526 1526 1525 1525 1526 1526 1526 1526 1529 1530 1530 1530 1532 1533 1533 1533 1534 1534 1535 1536 1537 1538 1539 1540 1542 1543 1545 1547 1548 1548 1549 1551 1553 1554 1557 1558 1561 1563 1565 1567
1527 1527 1526 1525 1525 1524 1523 1523 1524 1524 1525 1526 1528 1527 1528 1529 1530 1532 1531 1532 1532 1533 1533 1535 1536 1536 1539 1540 1541 1543 1545 1546 1547 1548 1550 1551 1553 1554 1557 1559 1561 1563 1565
1529 1528 1525 1523 1523 1522 1521 1520 1521 1521 1522 1523 1525 1525 1526 1527 1527 1529 1529 1529 1530 1531 1531 1533 1534 1535 1536 1538 1539 1541 1543 1543 1545 1547 1548 1549 1551 1552 1553 1555 1556 1558 1563
1529 1527 1525 1522 1520 1520 1519 1518 1518 1518 1518 1519 1521 1522 1522 1525 1525 1525 1525 1526 1527 1528 1528 1529 1531 1533 1534 1535 1536 1538 1540 1541 1543 1545 1546 1547 1550 1551 1555 1558 1558 1552 1555
1530 1526 1523 1520 1518 1516 1515 1515 1514 1514 1514 1515 1517 1517 1519 1520 1521 1521 1521 1522 1523 1524 1524 1526 1528 1529 1531 1532 1533 1535 1536 1537 1540 1542 1543 1545 1547 1549 1553 1553 1503 1553 1553
1530 1526 1522 1519 1516 1514 1512 1510 1508 1509 1509 1511 1512 1514 1515 1516 1516 1515 1517 1517 1519 1519 1520 1521 1523 1525 1528 1528 1528 1530 1531 1533 1535 1538 1541 1542 1545 1546 1549 1544 1524 1542 1553
1531 1527 1522 1517 1514 1510 1508 1506 1506 1505 1504 1506 1507 1509 1509 1510 1510 1511 1511 1512 1513 1514 1516 1517 1518 1521 1523 1524 1525 1527 1528 1530 1532 1534 1537 1539 1541 1544 1545 1548 1550 1551 1556
1530 1527 1523 1518 1513 1508 1505 1503 1501 1501 1500 1499 1502 1502 1504 1503 1506 1506 1507 1506 1507 1508 1509 1512 1513 1516 1518 1521 1522 1523 1524 1527 1529 1530 1533 1535 1537 1539 1544 1549 1554 1558 1559
1533 1526 1521 1517 1511 1506 1502 1499 1497 1496 1496 1494 1495 1495 1496 1497 1498 1501 1501 1501 1502 1502 1504 1505 1509 1512 1514 1517 1518 1520 1521 1523 1526 1527 1530 1531 1532 1535 1539 1545 1551 1553 1557
1533 1529 1523 1515 1510 1505 1499 1495 1492 1491 1491 1489 1489 1485 1488 1490 1491 1493 1496 1497 1497 1497 1500 1501 1504 1508 1511 1513 1513 1517 1517 1518 1522 1523 1526 1528 1526 1530 1535 1540 1547 1552 1558
1532 1526 1520 1515 1508 1502 1496 1489 1487 1481 1480 1480 1478 1480 1481 1482 1483 1485 1490 1491 1493 1493 1495 1498 1501 1503 1505 1507 1509 1511 1513 1515 1517 1519 1521 1524 1519 1526 1533 1538 1544 1550 1558
1530 1525 1520 1515 1509 1503 1497 1492 1486 1481 1476 1474 1472 1473 1473 1475 1475 1479 1482 1484 1487 1488 1488 1490 1494 1496 1499 1502 1505 1506 1512 1516 1510 1514 1518 1517 1515 1521 1530 1535 1541 1548 1555
1530 1524 1519 1514 1508 1503 1497 1492 1486 1481 1476 1470 1466 1465 1465 1466 1469 1470 1472 1477 1480 1482 1482 1484 1488 1492 1494 1496 1500 1500 1507 1509 1515 1516 1517 1507 1517 1522 1529 1536 1541 1547 1554
1529 1525 1520 1515 1509 1503 1497 1490 1485 1477 1471 1468 1463 1461 1460 1460 1460 1462 1467 1469 1473 1475 1476 1479 1482 1485 1487 1490 1493 1498 1498 1500 1504 1519 1515 1514 1517 1524 1530 1536 1543 1549 1555
1528 1522 1518 1514 1509 1503 1497 1491 1484 1479 1473 1467 1462 1457 1457 1452 1453 1456 1458 1461 1465 1468 1470 1472 1475 1478 1481 1483 1487 1492 1493 1495 1501 1502 1511 1522 1526 1531 1534 1540 1545 1551 1557
1527 1521 1515 1511 1506 1501 1496 1490 1484 1478 1470 1463 1459 1454 1451 1447 1445 1447 1445 1450 1457 1459 1462 1465 1468 1471 1473 1476 1480 1484 1484 1487 1493 1496 1504 1517 1526 1535 1540 1544 1546 1551 1556
Wind_Speed
15 15 16 16 14 13 11 11 11 12 12 12 11 11 10 9 9 8 7 6 5 5 6 6 7 7 8 9 9 8 7 9 10 9 9 8 13 16 16 17 16 16 16
9 13 16 16 13 12 11 12 12 12 12 12 12 11 10 10 9 8 7 6 6 6 7 7 8 7 7 8 8 8 7 9 9 9 6 7 12 16 16 16 15 16 16
7 9 11 13 13 12 11 11 11 13 13 11 11 10 10 10 9 9 8 7 6 6 8 10 7 7 7 7 7 8 8 10 11 9 7 7 10 15 16 17 16 16 17
12 8 12 13 12 11 11 11 10 12 12 12 10 9 9 9 9 9 9 8 8 8 8 9 8 7 8 8 7 8 10 9 10 10 9 10 11 15 17 17 17 17 18
9 6 7 7 8 9 11 11 10 11 12 12 11 9 8 8 9 9 10 10 9 9 9 9 10 8 9 9 9 9 10 10 10 10 10 12 13 16 17 17 17 18 18
4 3 4 4 7 8 8 9 11 12 13 13 11 9 8 8 8 9 10 10 10 11 11 10 10 10 9 10 10 11 11 11 11 12 12 13 15 17 17 18 19 19 19
4 4 6 6 7 6 9 10 11 12 11 12 11 9 8 8 8 7 10 11 11 11 12 13 10 11 11 11 10 10 10 12 12 14 13 14 17 17 18 19 19 21 20
5 3 4 7 7 8 9 10 13 15 14 13 12 10 9 8 8 9 10 11 12 13 13 14 13 13 13 12 12 10 10 10 12 14 15 16 18 18 19 21 20 21 21
10 5 6 7 9 10 11 12 13 15 16 17 16 15 13 12 11 10 11 11 12 13 13 13 13 12 13 13 12 11 11 10 12 14 16 18 19 20 20 21 23 24 23
11 7 6 8 10 12 14 13 14 14 18 20 19 17 16 15 14 12 12 12 12 12 13 13 13 13 14 13 13 11 12 11 12 14 17 20 20 21 21 23 24 25 26
12 12 10 10 12 13 14 16 17 16 17 19 18 17 17 16 17 15 14 14 14 14 13 14 13 13 15 14 14 13 12 12 13 15 17 19 20 21 22 24 27 28 30
22 18 18 16 13 14 14 17 18 16 14 16 18 17 16 19 20 19 16 15 16 16 16 15 14 14 14 15 15 15 15 15 16 15 17 19 20 21 23 27 30 31 34
29 26 23 22 19 18 14 15 19 19 20 16 16 18 21 21 21 21 18 17 18 17 18 18 18 16 15 15 14 15 16 17 18 15 17 19 20 21 24 30 35 37 37
31 30 27 23 23 22 18 17 17 20 21 22 19 23 22 25 23 23 21 20 20 20 19 20 20 20 19 19 18 19 19 18 20 18 19 19 21 20 20 30 41 45 43
28 30 30 29 27 24 23 21 18 19 21 23 22 21 25 26 26 24 23 22 22 21 21 22 22 21 20 20 20 21 21 21 22 21 19 21 22 24 21 18 62 48 40
29 30 31 32 31 30 27 24 22 20 21 23 24 24 22 26 26 26 25 24 24 23 23 24 24 23 22 23 19 22 22 21 25 26 23 24 23 25 19 2 42 41 31
31 31 31 31 31 32 32 30 25 26 23 28 25 26 25 27 25 24 25 24 27 25 25 25 25 24 23 21 22 22 21 20 18 20 22 24 25 30 28 26 11 9 19
35 31 30 30 29 29 31 32 31 28 24 26 27 27 28 27 27 24 24 28 29 29 28 28 26 25 25 22 22 23 20 22 21 22 22 23 26 32 31 27 23 25 18
29 35 34 31 32 29 27 29 30 31 26 22 25 28 28 26 28 24 25 24 21 20 21 23 26 27 24 24 25 26 25 23 23 22 23 23 24 27 27 27 32 26 23
29 27 30 33 32 32 27 27 29 30 29 25 22 25 31 29 29 26 25 26 23 20 22 23 24 28 26 27 24 25 27 24 27 25 25 30 36 35 36 38 33 28 29
28 31 32 31 33 34 34 30 27 30 33 27 26 22 31 33 30 29 29 27 25 24 25 26 27 24 34 27 27 29 23 26 32 27 33 37 50 39 48 42 41 37 32
32 32 32 33 32 33 35 33 29 30 30 29 31 27 25 34 26 31 29 28 28 28 28 28 28 38 42 35 36 31 16 20 30 32 43 45 52 51 47 43 39 38 33
32 33 34 33 33 32 31 34 30 25 23 29 30 30 28 29 30 31 29 28 28 31 32 32 33 35 37 37 37 25 14 9 25 32 38 52 47 44 43 41 39 34 34
32 31 30 30 31 31 32 31 33 32 31 28 31 27 30 30 33 29 34 27 30 33 35 32 33 32 40 42 43 37 31 39 30 19 32 41 44 44 40 37 35 34 30
31 32 31 30 29 30 29 31 31 31 29 29 28 29 27 27 25 33 30 26 34 35 36 35 33 37 37 45 44 41 30 44 40 47 38 33 32 33 33 30 30 28 28
30 31 32 30 29 29 29 29 30 31 30 30 28 28 28 26 24 30 27 36 37 37 35 36 34 36 42 49 46 47 43 45 48 53 47 39 33 32 31 30 29 28 27
Wind_Direction
210 211 206 204 198 196 192 191 193 193 191 195 199 205 208 208 203 198 203 213 221 209 193 179 192 180 169 176 188 188 174 168 154 141 137 128 135 139 139 138 137 129 124
226 213 209 204 204 208 197 195 197 197 196 196 200 206 208 209 207 206 210 216 221 214 191 186 206 188 190 176 176 191 185 174 168 159 151 144 145 148 149 146 145 137 129
260 246 220 210 207 208 207 202 197 199 199 200 202 206 212 213 213 216 220 224 220 206 190 198 210 196 195 184 179 181 187 185 180 181 181 175 157 159 157 153 153 143 135
321 243 222 220 208 209 209 209 211 198 199 200 202 211 217 221 222 220 222 224 220 207 203 205 212 206 201 198 192 183 181 182 183 182 181 181 170 167 163 160 159 151 143
352 264 260 248 232 217 216 214 218 209 206 204 201 211 223 231 228 229 227 225 220 214 209 213 217 215 218 207 206 199 196 194 198 199 194 190 179 176 169 167 167 161 154
58 210 235 269 275 266 254 235 214 213 213 211 205 208 223 235 235 231 231 227 226 220 217 219 219 220 220 216 214 209 209 209 205 202 196 194 185 183 175 173 175 166 162
35 200 206 225 224 235 276 267 248 227 232 223 220 224 226 233 241 240 234 234 229 229 228 229 227 223 225 219 219 215 217 213 208 205 205 197 188 187 184 182 179 172 167
14 285 232 216 228 235 225 226 266 240 230 234 240 236 237 241 246 241 243 239 239 236 234 233 234 231 229 225 223 223 219 212 205 204 204 195 191 188 191 186 183 178 174
360 269 244 236 230 231 231 234 231 252 241 234 239 245 244 250 251 247 247 243 241 243 239 236 236 232 231 230 228 225 220 211 206 200 198 195 194 191 193 189 185 182 178
334 320 282 257 244 241 238 239 240 241 247 240 243 248 249 255 256 247 244 242 240 239 241 238 236 233 234 232 231 225 225 211 204 200 199 196 196 196 197 192 187 184 180
311 331 323 288 269 250 244 244 242 241 245 249 245 249 248 255 259 253 248 242 236 237 238 242 239 235 234 230 231 229 227 220 209 207 206 201 199 201 201 194 189 185 181
344 334 327 317 296 272 254 246 242 242 251 252 249 246 257 262 262 257 251 246 241 238 236 237 237 233 233 233 234 235 229 222 219 213 211 206 204 206 203 196 190 186 182
346 337 332 322 322 303 276 260 247 241 245 244 255 256 255 258 265 258 253 247 242 239 238 238 239 238 236 236 237 242 235 226 220 218 221 213 213 213 209 201 193 186 182
344 340 334 325 314 315 302 281 262 248 247 246 251 260 254 266 266 262 253 249 244 241 240 240 242 244 243 245 244 244 240 233 225 222 221 219 220 218 222 213 199 185 179
340 337 334 331 322 306 305 293 285 256 246 245 249 257 262 268 275 263 253 249 246 243 241 243 244 245 246 246 245 243 240 237 228 227 230 223 222 219 209 283 178 180 176
348 341 333 326 323 316 302 297 293 279 256 248 250 254 258 268 269 268 256 251 248 245 242 242 243 245 247 249 245 246 241 239 231 230 237 230 225 224 224 326 138 150 148
348 344 338 331 323 316 307 295 291 272 269 256 251 248 252 265 264 265 258 250 248 244 244 242 241 243 243 242 248 245 246 239 234 231 229 230 226 219 220 219 195 149 155
346 346 341 335 328 321 311 299 286 291 275 262 250 247 255 259 259 259 258 250 252 246 242 240 238 237 237 240 244 252 247 242 240 242 239 232 227 219 215 218 207 178 167
345 341 342 339 335 327 317 309 294 293 284 270 248 249 257 247 255 256 260 255 253 251 240 236 227 227 229 235 238 243 236 244 242 229 233 231 229 209 198 184 177 173 178
352 348 339 339 339 333 328 313 300 290 284 274 255 247 248 252 244 240 251 255 254 245 233 232 227 225 230 232 231 232 228 226 233 220 223 203 193 180 174 167 167 167 168
352 350 350 343 340 339 335 334 311 296 284 270 267 260 243 244 236 243 242 255 253 241 231 231 228 231 218 227 228 203 209 210 210 217 202 196 171 176 165 168 163 160 160
356 354 353 351 346 342 339 337 337 323 309 301 281 257 256 242 236 237 240 246 262 239 230 229 224 225 224 224 210 197 152 158 164 180 170 154 155 154 158 159 161 159 150
356 355 355 353 349 346 339 332 330 324 314 302 283 270 254 247 239 231 234 243 258 237 228 224 230 228 223 216 211 183 151 152 137 140 146 150 150 158 157 157 157 157 152
353 351 351 351 348 347 344 338 336 340 332 323 316 307 278 260 245 237 233 234 243 239 231 225 232 233 224 220 202 212 189 174 149 120 123 134 139 145 149 148 148 150 151
347 349 349 349 348 346 347 343 337 335 332 324 316 312 304 276 248 235 227 229 239 238 230 230 230 233 230 225 218 202 190 177 167 152 133 133 140 140 145 148 150 151 153
346 344 344 347 347 344 345 345 342 335 334 329 325 316 311 296 263 234 224 223 245 229 234 229 232 235 233 218 220 201 191 185 166 154 146 143 143 144 151 156 156 157 157